�������l�o���
Date,Time,MP-1(��Sv/h),MP-2(��Sv/h),MP-3(��Sv/h),MP-4(��Sv/h),MP-5(��Sv/h),MP-6(��Sv/h),MP-7(��Sv/h),MP-8(��Sv/h),����,����(m/s),���J
2017/10/06,00:00,0.952,1.527,0.983,1.817,1.264,0.508,0.941,0.864,��쐼,4.4,��
2017/10/06,00:10,0.951,1.528,0.985,1.816,1.260,0.509,0.942,0.864,��쐼,4.7,��
2017/10/06,00:20,0.953,1.525,0.984,1.815,1.262,0.509,0.941,0.866,��쐼,4.6,��
2017/10/06,00:30,0.952,1.528,0.983,1.817,1.261,0.508,0.941,0.865,��쐼,4.1,��
2017/10/06,00:40,0.953,1.528,0.985,1.814,1.262,0.508,0.940,0.863,��쐼,4.5,��
2017/10/06,00:50,0.953,1.526,0.983,1.817,1.262,0.508,0.941,0.866,��쐼,4.5,��
2017/10/06,01:00,0.955,1.525,0.980,1.818,1.260,0.508,0.941,0.864,��쐼,4.4,��
2017/10/06,01:10,0.952,1.524,0.983,1.816,1.264,0.509,0.942,0.865,��쐼,4.5,��
2017/10/06,01:20,0.952,1.528,0.985,1.816,1.263,0.506,0.943,0.865,��쐼,4.3,��
2017/10/06,01:30,0.952,1.527,0.984,1.814,1.261,0.509,0.941,0.865,��쐼,4.4,��
2017/10/06,01:40,0.952,1.527,0.985,1.819,1.260,0.508,0.941,0.863,��쐼,4.3,��
2017/10/06,01:50,0.954,1.525,0.984,1.817,1.262,0.508,0.939,0.864,��쐼,3.5,��
2017/10/06,02:00,0.953,1.527,0.984,1.816,1.262,0.509,0.941,0.864,��쐼,3.8,��
2017/10/06,02:10,0.952,1.524,0.982,1.817,1.260,0.508,0.942,0.865,��쐼,4.5,��
2017/10/06,02:20,0.951,1.525,0.983,1.813,1.261,0.508,0.942,0.865,��쐼,4.5,��
2017/10/06,02:30,0.954,1.527,0.983,1.816,1.261,0.508,0.942,0.865,��쐼,4.2,��
2017/10/06,02:40,0.950,1.526,0.984,1.813,1.263,0.509,0.939,0.866,��,4.2,��
2017/10/06,02:50,0.952,1.525,0.984,1.816,1.260,0.509,0.940,0.865,��쐼,4.4,��
2017/10/06,03:00,0.951,1.526,0.985,1.816,1.263,0.507,0.939,0.865,��쐼,4.3,��
2017/10/06,03:10,0.952,1.527,0.983,1.818,1.261,0.507,0.939,0.865,��쐼,4.6,��
2017/10/06,03:20,0.953,1.527,0.987,1.814,1.262,0.509,0.941,0.865,��쐼,4.5,��
2017/10/06,03:30,0.953,1.525,0.984,1.817,1.263,0.508,0.939,0.866,��쐼,4.6,��
2017/10/06,03:40,0.951,1.528,0.982,1.816,1.260,0.508,0.940,0.865,��쐼,4.1,��
2017/10/06,03:50,0.950,1.526,0.984,1.814,1.259,0.509,0.942,0.866,��쐼,4.4,��
2017/10/06,04:00,0.951,1.528,0.983,1.815,1.261,0.508,0.939,0.866,��쐼,4.4,��
2017/10/06,04:10,0.950,1.528,0.984,1.815,1.259,0.508,0.941,0.865,��쐼,4.4,��
2017/10/06,04:20,0.954,1.526,0.983,1.815,1.261,0.508,0.942,0.863,��쐼,4.4,��
2017/10/06,04:30,0.951,1.525,0.984,1.819,1.261,0.508,0.941,0.866,��쐼,4.7,��
2017/10/06,04:40,0.951,1.525,0.985,1.818,1.260,0.509,0.941,0.865,��쐼,4.5,��
2017/10/06,04:50,0.953,1.525,0.982,1.816,1.260,0.509,0.941,0.864,��쐼,3.9,��
2017/10/06,05:00,0.951,1.527,0.982,1.817,1.260,0.508,0.941,0.863,��쐼,3.9,��
2017/10/06,05:10,0.952,1.526,0.984,1.819,1.259,0.508,0.941,0.865,��쐼,3.5,��
2017/10/06,05:20,0.949,1.530,0.984,1.814,1.259,0.508,0.941,0.866,��쐼,4.0,��
2017/10/06,05:30,0.950,1.528,0.984,1.814,1.260,0.508,0.940,0.866,��쐼,3.8,��
2017/10/06,05:40,0.952,1.526,0.984,1.813,1.260,0.508,0.939,0.865,��쐼,3.5,��
2017/10/06,05:50,0.949,1.526,0.984,1.818,1.260,0.508,0.940,0.865,��쐼,3.4,��
2017/10/06,06:00,0.952,1.523,0.983,1.814,1.260,0.507,0.940,0.865,��쐼,3.9,��
2017/10/06,06:10,0.951,1.523,0.984,1.817,1.261,0.507,0.942,0.866,��쐼,3.9,��
2017/10/06,06:20,0.952,1.522,0.985,1.817,1.260,0.507,0.941,0.865,��쐼,4.1,��
2017/10/06,06:30,0.951,1.528,0.984,1.815,1.260,0.507,0.940,0.865,��쐼,4.5,��
2017/10/06,06:40,0.950,1.524,0.983,1.814,1.260,0.506,0.942,0.865,��쐼,4.8,��
2017/10/06,06:50,0.952,1.526,0.983,1.817,1.259,0.508,0.941,0.866,��쐼,4.8,��
2017/10/06,07:00,0.951,1.527,0.983,1.813,1.260,0.508,0.941,0.864,��쐼,4.3,��
2017/10/06,07:10,0.952,1.527,0.984,1.819,1.259,0.508,0.942,0.866,��쐼,4.7,��
2017/10/06,07:20,0.951,1.528,0.982,1.815,1.260,0.507,0.942,0.866,��쐼,4.7,��
2017/10/06,07:30,0.954,1.526,0.982,1.815,1.261,0.508,0.941,0.866,��쐼,4.0,��
2017/10/06,07:40,0.952,1.527,0.985,1.817,1.260,0.509,0.940,0.866,��쐼,3.6,��
2017/10/06,07:50,0.951,1.529,0.984,1.816,1.263,0.508,0.942,0.867,��쐼,3.6,��
2017/10/06,08:00,0.954,1.527,0.985,1.819,1.260,0.509,0.941,0.867,��쐼,3.6,��
2017/10/06,08:10,0.953,1.527,0.985,1.817,1.261,0.509,0.939,0.867,��,3.1,��
2017/10/06,08:20,0.954,1.530,0.986,1.820,1.263,0.510,0.941,0.865,��쐼,2.8,��
2017/10/06,08:30,0.953,1.529,0.984,1.818,1.265,0.509,0.941,0.867,��,2.3,��
2017/10/06,08:40,0.955,1.527,0.987,1.820,1.264,0.509,0.940,0.867,��쓌,2.8,��
2017/10/06,08:50,0.954,1.527,0.983,1.818,1.262,0.509,0.941,0.868,��쓌,3.1,��
2017/10/06,09:00,0.953,1.525,0.983,1.821,1.265,0.507,0.939,0.867,��쓌,2.3,��
2017/10/06,09:10,0.953,1.523,0.981,1.820,1.265,0.507,0.941,0.866,�쓌,2.3,��
2017/10/06,09:20,0.954,1.526,0.982,1.821,1.265,0.507,0.940,0.866,�쓌,2.0,��
2017/10/06,09:30,0.954,1.523,0.984,1.824,1.265,0.509,0.940,0.865,��쓌,3.5,��
2017/10/06,09:40,0.955,1.526,0.984,1.822,1.264,0.507,0.939,0.866,�쓌,3.3,��
2017/10/06,09:50,0.954,1.520,0.984,1.820,1.265,0.506,0.943,0.866,�쓌,2.6,��
2017/10/06,10:00,0.952,1.526,0.986,1.821,1.265,0.505,0.939,0.865,��,1.9,��
2017/10/06,10:10,0.952,1.525,0.984,1.823,1.266,0.508,0.942,0.865,��쓌,2.9,��
2017/10/06,10:20,0.952,1.525,0.981,1.821,1.263,0.505,0.941,0.865,��쓌,2.3,��
2017/10/06,10:30,0.952,1.524,0.979,1.821,1.263,0.507,0.943,0.864,��쓌,2.8,��
2017/10/06,10:40,0.953,1.524,0.979,1.823,1.264,0.508,0.941,0.865,�쓌,3.5,��
2017/10/06,10:50,0.955,1.527,0.983,1.822,1.265,0.509,0.941,0.864,��쓌,2.8,��
2017/10/06,11:00,0.957,1.524,0.982,1.823,1.263,0.507,0.941,0.864,��쓌,3.2,��
2017/10/06,11:10,0.954,1.528,0.984,1.822,1.263,0.507,0.942,0.863,��쓌,3.3,��
2017/10/06,11:20,0.951,1.526,0.984,1.822,1.264,0.509,0.943,0.863,��쓌,3.7,��
2017/10/06,11:30,0.956,1.523,0.983,1.821,1.264,0.508,0.940,0.866,��,3.9,��
2017/10/06,11:40,0.952,1.526,0.985,1.818,1.264,0.508,0.940,0.863,��,2.9,��
2017/10/06,11:50,0.954,1.525,0.984,1.825,1.264,0.508,0.941,0.863,��쓌,2.9,��
2017/10/06,12:00,0.951,1.529,0.986,1.822,1.264,0.508,0.942,0.863,��쓌,3.3,��
2017/10/06,12:10,0.954,1.527,0.987,1.824,1.265,0.507,0.942,0.866,��,3.2,��
2017/10/06,12:20,0.953,1.530,0.988,1.824,1.266,0.509,0.942,0.864,��쓌,3.3,��
2017/10/06,12:30,0.956,1.529,0.986,1.824,1.267,0.508,0.941,0.865,��쐼,3.2,��
2017/10/06,12:40,0.954,1.532,0.986,1.823,1.265,0.509,0.942,0.864,��,3.3,��
2017/10/06,12:50,0.957,1.531,0.986,1.825,1.266,0.510,0.941,0.865,��,3.2,��
2017/10/06,13:00,0.954,1.529,0.986,1.824,1.266,0.510,0.943,0.864,��쓌,3.3,��
2017/10/06,13:10,0.954,1.529,0.984,1.824,1.267,0.508,0.941,0.864,��쓌,4.2,��
2017/10/06,13:20,0.957,1.526,0.984,1.824,1.265,0.510,0.941,0.864,��쓌,2.9,��
2017/10/06,13:30,0.954,1.525,0.985,1.826,1.267,0.508,0.942,0.864,��,3.4,��
2017/10/06,13:40,0.954,1.526,0.986,1.826,1.267,0.509,0.944,0.865,��,2.6,��
2017/10/06,13:50,0.955,1.530,0.983,1.826,1.267,0.509,0.942,0.867,��,3.0,��
2017/10/06,14:00,0.954,1.530,0.982,1.823,1.267,0.509,0.944,0.865,��쓌,2.8,��
2017/10/06,14:10,0.955,1.530,0.985,1.824,1.267,0.510,0.942,0.865,��쓌,3.0,��
2017/10/06,14:20,0.956,1.531,0.987,1.824,1.267,0.509,0.941,0.867,��,3.9,��
2017/10/06,14:30,0.958,1.530,0.985,1.826,1.266,0.510,0.941,0.866,��쓌,3.7,��
2017/10/06,14:40,0.956,1.528,0.990,1.824,1.265,0.509,0.943,0.864,��쓌,2.6,��
2017/10/06,14:50,0.956,1.531,0.989,1.825,1.268,0.509,0.940,0.865,��쓌,2.5,��
2017/10/06,15:00,0.955,1.531,0.985,1.826,1.264,0.510,0.943,0.865,��,2.3,��
2017/10/06,15:10,0.956,1.528,0.990,1.825,1.265,0.511,0.944,0.865,��,2.6,��
2017/10/06,15:20,0.956,1.532,0.988,1.825,1.265,0.511,0.942,0.867,��,2.6,��
2017/10/06,15:30,0.956,1.531,0.988,1.827,1.267,0.510,0.942,0.867,��,1.9,��
2017/10/06,15:40,0.955,1.533,0.989,1.830,1.267,0.511,0.942,0.864,��,2.5,��
2017/10/06,15:50,0.955,1.528,0.991,1.825,1.267,0.511,0.942,0.867,��,2.2,��
2017/10/06,16:00,0.956,1.524,0.990,1.826,1.269,0.512,0.944,0.867,��,2.3,��
2017/10/06,16:10,0.957,1.523,0.992,1.828,1.269,0.510,0.941,0.867,��쓌,1.7,��
2017/10/06,16:20,0.957,1.532,0.990,1.829,1.269,0.511,0.942,0.866,��쓌,2.2,��
2017/10/06,16:30,0.958,1.527,0.989,1.826,1.270,0.514,0.942,0.868,��,2.0,��
2017/10/06,16:40,0.959,1.537,0.990,1.825,1.268,0.512,0.941,0.867,��쓌,1.9,��
2017/10/06,16:50,0.960,1.536,0.989,1.825,1.269,0.511,0.941,0.868,��,2.0,��
2017/10/06,17:00,0.960,1.536,0.992,1.826,1.270,0.512,0.939,0.868,�쐼,1.2,��
2017/10/06,17:10,0.959,1.537,0.991,1.826,1.268,0.512,0.942,0.867,��,1.7,��
2017/10/06,17:20,0.958,1.539,0.990,1.824,1.270,0.512,0.943,0.866,��쐼,0.9,��
2017/10/06,17:30,0.958,1.537,0.992,1.824,1.267,0.511,0.943,0.868,�쐼,0.6,��
2017/10/06,17:40,0.959,1.539,0.991,1.823,1.268,0.512,0.943,0.868,���쐼,1.7,��
2017/10/06,17:50,0.960,1.535,0.992,1.825,1.269,0.510,0.942,0.866,�쐼,2.0,��
2017/10/06,18:00,0.959,1.535,0.990,1.824,1.271,0.510,0.942,0.867,�쐼,2.6,��
2017/10/06,18:10,0.958,1.535,0.990,1.825,1.270,0.512,0.943,0.870,�쐼,2.0,��
2017/10/06,18:20,0.959,1.533,0.992,1.826,1.268,0.511,0.945,0.869,��,1.2,��
2017/10/06,18:30,0.961,1.534,0.990,1.824,1.270,0.511,0.942,0.868,��쐼,1.5,��
2017/10/06,18:40,0.961,1.532,0.988,1.823,1.266,0.509,0.943,0.868,��쐼,1.5,��
2017/10/06,18:50,0.962,1.533,0.991,1.828,1.267,0.511,0.944,0.868,��쐼,1.1,��
2017/10/06,19:00,0.961,1.537,0.991,1.826,1.267,0.512,0.943,0.869,��쐼,1.2,�L
2017/10/06,19:10,0.961,1.534,0.990,1.828,1.272,0.511,0.943,0.869,��쓌,1.1,��
2017/10/06,19:20,0.960,1.532,0.991,1.825,1.270,0.511,0.942,0.867,��쓌,1.5,�L
2017/10/06,19:30,0.962,1.535,0.989,1.822,1.270,0.511,0.942,0.867,��,1.2,�L
2017/10/06,19:40,0.960,1.537,0.991,1.824,1.269,0.512,0.942,0.868,��,0.9,�L
2017/10/06,19:50,0.958,1.534,0.990,1.827,1.268,0.511,0.943,0.871,��,0.8,�L
2017/10/06,20:00,0.958,1.534,0.991,1.823,1.269,0.511,0.943,0.867,-,CALM,�L
2017/10/06,20:10,0.959,1.533,0.989,1.822,1.265,0.510,0.942,0.870,���k��,0.6,�L
2017/10/06,20:20,0.961,1.531,0.988,1.827,1.268,0.513,0.940,0.867,���k��,0.6,�L
2017/10/06,20:30,0.955,1.531,0.989,1.823,1.263,0.512,0.941,0.867,-,CALM,�L
2017/10/06,20:40,0.953,1.524,0.988,1.820,1.259,0.512,0.940,0.867,�k�k��,0.9,�L
2017/10/06,20:50,0.954,1.521,0.985,1.820,1.258,0.511,0.937,0.867,�k��,1.4,�L
2017/10/06,21:00,0.950,1.516,0.982,1.813,1.254,0.510,0.936,0.864,�k��,2.0,�L
2017/10/06,21:10,0.951,1.512,0.982,1.812,1.247,0.508,0.934,0.861,�k��,1.2,�L
2017/10/06,21:20,0.951,1.508,0.980,1.811,1.247,0.510,0.934,0.862,�k�k��,0.9,�L
2017/10/06,21:30,0.946,1.505,0.980,1.809,1.246,0.509,0.932,0.859,�k�k��,0.9,�L
2017/10/06,21:40,0.945,1.499,0.977,1.802,1.241,0.508,0.931,0.857,�k��,0.9,�L
2017/10/06,21:50,0.943,1.498,0.974,1.802,1.237,0.508,0.932,0.859,��,1.7,�L
2017/10/06,22:00,0.942,1.498,0.974,1.800,1.234,0.507,0.929,0.855,�k��,2.0,�L
2017/10/06,22:10,0.943,1.496,0.975,1.798,1.232,0.505,0.929,0.856,�k��,1.2,�L
2017/10/06,22:20,0.941,1.494,0.973,1.795,1.235,0.508,0.928,0.856,�k�k��,0.6,�L
2017/10/06,22:30,0.943,1.495,0.976,1.797,1.231,0.507,0.927,0.857,-,CALM,�L
2017/10/06,22:40,0.939,1.494,0.971,1.792,1.233,0.505,0.928,0.858,��,0.6,�L
2017/10/06,22:50,0.939,1.493,0.971,1.793,1.235,0.506,0.929,0.856,�쐼,0.9,�L
2017/10/06,23:00,0.940,1.491,0.969,1.789,1.228,0.505,0.929,0.856,��쐼,1.5,�L
2017/10/06,23:10,0.938,1.488,0.970,1.792,1.229,0.505,0.927,0.854,��쐼,2.3,�L
2017/10/06,23:20,0.937,1.483,0.966,1.787,1.226,0.503,0.927,0.853,��,3.2,�L
2017/10/06,23:30,0.932,1.478,0.965,1.780,1.225,0.503,0.926,0.855,��,3.6,�L
2017/10/06,23:40,0.932,1.481,0.966,1.780,1.222,0.503,0.926,0.853,��,3.8,�L
2017/10/06,23:50,0.931,1.476,0.965,1.782,1.222,0.503,0.927,0.853,��,4.0,�L
